Regional Weather Roundup
Issued by NWS Wakefield, VA

Home | Current Version | Previous Version | Text Only | Print | Product List | Glossary On
Versions: 1 2 3 4 5 6 7 8 9 10 11 12 13 14 15 16 17 18 19 20 21 22 23 24 25 26 27 28 29 30 31 32 33 34 35 36 37 38 39 40 41 42 43 44 45 46 47 48 49 50
000
ASUS41 KAKQ 160910
RWRAKQ

REGIONAL WEATHER ROUNDUP
NATIONAL WEATHER SERVICE WAKEFIELD VA
500 AM EDT TUE SEP 16 2014

Note: "fair" indicates few or no clouds below 12,000 feet with no
significant weather and/or obstructions to visibility. * = Denotes
station may not report precipitation (e.g., rain,snow,etc.),
thunder or fog.

VAZ042-051-052>054-056-161000-
NORTHERN VIRGINIA

CITY           SKY/WX    TMP DP  RH WIND       PRES   REMARKS
WASH NATIONAL  MOCLDY    67  60  78 SW3       30.01S
DULLES         PTCLDY    57  57 100 CALM      30.01S
FORT BELVOIR   PTCLDY    63  62  96 CALM      30.01S
QUANTICO       PTCLDY    64  61  90 CALM      30.02R
FREDERICKSBRG* CLOUDY    64  64 100 CALM      30.01R
STAFFORD*      PTCLDY    60  60 100 CALM      30.05S FOG
WARRENTON      FOG       56  56 100 CALM      30.01S VSB<1/4
CULPEPER*      FOG      N/A N/A N/A CALM      30.02S VSB 1/4
MANASSAS*      CLEAR     61  59  94 CALM      30.02R
LEESBURG*      CLEAR     59  59 100 CALM      30.02S
WINCHESTER     CLEAR     55  54  94 CALM      30.02S
FRONT ROYAL*   PTSUNNY   55  55 100 CALM      30.01S
LURAY*         CLOUDY    61  61 100 CALM      30.02S
$$

VAZ048-049-060>072-079>083-161000-
CENTRAL AND SOUTH CENTRAL VIRGINIA...AND NORTH CENTRAL NORTH CAROLINA

CITY           SKY/WX    TMP DP  RH WIND       PRES   REMARKS
RICHMOND       CLOUDY    66  63  90 SW5       30.02S
CHESTERFIELD*  CLOUDY   N/A N/A N/A SW3       30.03S
PETERSBURG*    PTCLDY    62  60  96 CALM      30.03S FOG
HANOVER        CLOUDY    67  64  90 SW6       30.03S
TAPPAHANNOCK*  CLOUDY    66  62  87 S3        30.02S
CHARLOTTSVILLE PTCLDY    63  62  97 S5        30.01F FOG
ORANGE*        CLEAR     61  59  94 S3        30.03S FOG
LOUISA*        CLEAR     64  63  94 SW3       30.01S FOG
FARMVILLE*     FOG       63  63 100 CALM      30.01S VSB 1/4
CREWE*         CLOUDY    68  66  93 CALM      30.02S
FORT PICKETT*  CLOUDY    64  63  97 SW5       30.03S
LUNENBURG*     CLOUDY    66  65  98 CALM      30.03S
SOUTH HILL*      N/A     64  64 100 S3        30.08S FOG
LAWRENCEVILLE* PTSUNNY   63  63  99 CALM      30.03R
ROANOKE RAPIDS PTSUNNY   63  63 100 CALM      30.04S FOG
RALEIGH        MOCLDY    67  65  93 CALM      30.05R
$$

VAZ088>098-161000-
SOUTHEAST VIRGINIA

CITY           SKY/WX    TMP DP  RH WIND       PRES   REMARKS
NORFOLK        CLOUDY    67  62  84 S6        30.03F
VIRGINIA BEACH CLOUDY    67  62  84 SW5       30.03F
NORFOLK NAVAL  CLOUDY    70  63  78 S6        30.05S
WEST POINT*    NOT AVBL
NEWPORT NEWS   CLOUDY    72  64  76 SW7       30.03F
LANGLEY AFB    CLOUDY    68  66  93 SW3       30.02F
FORT EUSTIS    CLOUDY    68  68 100 S6        30.01F
WILLIAMSBURG*  MOCLDY    70  64  83 S6        30.03F
HR EXEC AP*    CLOUDY    64  61  88 CALM      30.05F
FRANKLIN*        N/A     64  64 100 S3        30.03F
WAKEFIELD      PTCLDY    66  63  90 CALM      30.03F
$$

VAZ020-022-025-037-045-161000-
WEST CENTRAL AND SOUTHWEST VIRGINIA

CITY           SKY/WX    TMP DP  RH WIND       PRES   REMARKS
STAUNTON*      CLOUDY    59  57  91 CALM      30.05S
HOT SPRINGS VA CLOUDY    55  45  70 W17G23    30.13R
LYNCHBURG      CLEAR     59  59 100 CALM      30.05S FOG
DANVILLE       CLEAR     63  61  93 W3        30.04R FOG
SOUTH BOSTON*  NOT AVBL
MARTINSVILLE   CLEAR     63  63 100 SE3       30.07S FOG
ROANOKE        PTCLDY    64  60  87 SW5       30.07S
BLACKSBURG     MOCLDY    61  61 100 W5        30.12S FOG
DUBLIN*        PTCLDY    60  60 100 CALM      30.12R
MARION*        CLOUDY    63  62  94 W6        30.16R
HILLSVILLE*    CLOUDY    60  58  93 NW5       30.12S
RICHLANDS*     CLOUDY    65  63  92 W6        30.14S
WISE*          CLOUDY    63  63 100 W5        30.15S
ABINGDON*      CLOUDY    65  65 100 CALM      30.12S FOG
$$

MDZ021>025-VAZ099-100-161000-
SOUTHERN MARYLAND AND THE DELMARVA PENINSULA

CITY           SKY/WX    TMP DP  RH WIND       PRES   REMARKS
PATUXENT RIVER MOCLDY    68  62  81 SW8       30.00F
BAY BRIDGE APT   N/A     68  63  83 SW8       29.99S
LEONARDTOWN    CLOUDY    66  61  82 SW6       30.01F
DOVER          CLOUDY    60  58  90 S7        29.99F
GEORGETOWN     CLOUDY    61  57  87 CALM      30.02F
EASTON         MOCLDY    64  64 100 CALM      30.02F
CAMBRIDGE      MOCLDY    63  61  94 SE3       29.99F
SALISBURY        N/A    N/A N/A N/A MISG        N/A
OCEAN CITY     CLOUDY    64  60  87 CALM      30.02F
WALLOPS ISLAND CLOUDY    68  63  84 SW7       30.02F
ACCOMACK*      CLOUDY    64  61  88 S3        30.02F
$$

NCZ012>017-030>032-161000-
EASTERN NORTH CAROLINA

CITY           SKY/WX    TMP DP  RH WIND       PRES   REMARKS
ELIZABETH CITY CLOUDY    67  65  93 CALM      30.04S
AHOSKIE*       PTCLDY    64  63  97 CALM      30.04F
EDENTON*       CLOUDY    71  67  86 SW5       30.05R
CURRITUCK*     CLOUDY    67  64  90 CALM      30.05R
KILL DEVIL HLS CLOUDY    70  63  78 CALM      30.03S
MANTEO         CLOUDY    69  64  85 CALM      30.04S
CAPE HATTERAS  MOCLDY    65  64  97 NW3       30.05R
TARBORO*       PTSUNNY   66  64  94 CALM      30.05S FOG
GOLDSBORO      MOCLDY    69  68  98 S2        30.03S
WASHINGTON     CLOUDY    69  66  90 S3        30.06S
GREENVILLE     CLOUDY    70  68  94 SW3       30.06S
NEW BERN       CLOUDY    71  67  87 CALM      30.06F
WILMINGTON     CLOUDY    72  70  93 CALM      30.04S
$$

VAZ048-161000-
ELSEWHERE

CITY           SKY/WX    TMP DP  RH WIND       PRES   REMARKS
HARRISBURG PA  LGT RAIN  58  53  84 CALM      30.00S
BALTIMORE      PTCLDY    61  58  90 SW3       29.99F
ANNAPOLIS      CLOUDY    65  61  87 SW5       29.99S
ANDREWS AFB    MOCLDY    64  62  92 W6        30.01R
WILMINGTON DE  CLOUDY    65  60  84 S8        29.99F
PHILADELPHIA   CLOUDY    62  55  77 E3        30.00F
WILDWOOD NJ*   PTCLDY    61  54  77 SE5       30.02F
ATLANTIC CITY  MOCLDY    55  54  96 CALM      30.02F
HENDERSON NC   PTCLDY    65  64  94 S7        30.03F FOG
GREENSBORO     MOCLDY    68  66  93 SW5       30.04F
ROCKY MOUNT    MOCLDY    66  64  93 CALM      30.04R FOG
FAYETTEVILLE   CLOUDY    71  69  93 CALM      30.04R
CHARLOTTE      CLOUDY    70  68  93 CALM      30.07S
$$

VAZ100-161000-
MARINE

STATION/POSITION TIME  TEMP    WIND        PRES    WAVE   SWELL
                       AIR SEA DIR/SP/G            HT/PER HT/PER
                 (UTC) (F)     (DEG/KT/KT) (MB)    (FT/S) (FT/S)
44066 TX TWR #4  0900   67 73  290/  6/ 10 1017.3R   2/13   2/13
CAPE MAY NJ      0900   67 75  160/  5/  7 1015.9F
LEWES DE         0900   64 72  170/  4/  6 1016.1F
15NM E FENWICK I 0900   69 72              1016.9F   2/13
OCEAN-CITY-INLET 0900   70 72  200/  9/ 11 1016.3F
WACHAPREAGUE VA  0900   69 73  230/  5/  7 1016.6F
THOMAS POINT MD  0900   67 74  250/ 11/ 13 1016.8R
GOOSES REEF MD   0900   69     230/ 12/ 14 1016.0R
COVE POINT MD    0900   68     230/ 10/ 12 1015.6R
SOLOMONS ISLAND  0900      76                N/A
BISHOPS HEAD MD  0900   70 72  200/ 11/ 12 1015.3F
PINEY POINT MD   0900          240/ 10/ 11   N/A
POTOMAC MD       0900   69     220/ 14/ 16 1015.2F
CAMBRIDGE MD     0900   66 75  170/  4/  6 1015.3F
LEWISETTA VA     0900   67 73  220/ 11/ 13 1015.4F
RAPPAHANNOCK LGT 0900          210/ 14/ 16 1016.6F
STINGRAY PT      0900   70     220/ 12/ 14   N/A
YORK RVR RNG VA  0900   70     230/ 12/ 13 1016.1S
YORKTOWN VA      0900   68 77  190/  3/  4 1016.3F
JAMESTOWN VA     0900   69     210/  6/ 10   N/A
DOMINION TERM VA 0900   69     210/  9/ 10 1016.9S
KIPTOPEKE VA     0900      78  210/ 10/ 12   N/A
CHES BAY BRIDGE  0900   69 76  190/ 10/ 12 1016.2F
CAPE HENRY VA    0900   67     190/  7/  9 1015.7F
CHESAPEAKE LGHT  0800   71     220/ 16/ 17 1017.8R
WILLOUBY STN VA  0900   69     210/ 12/ 14 1015.4F
S CRANEY ISL VA  0900          170/  6/  7 1016.7F
CAPE HENRY BUOY  0800      76                N/A     2/13   2/13
1ST LANDING BUOY 0900   70     210/ 10/ 12 1016.6F
CAPE CHARLES BUO 0900      75                N/A     2/ 3   2/13
OFFSHORE WE BUOY 0900      74                N/A     2/13   2/13
64NM E OF VA BCH 0900   73 79  250/  8/ 12 1016.9R   2/ 7   2/ 7
DUCK PIER NC     0900   72 76  220/  3/  5 1016.5R
44100 DUCK FRF   0900      74                N/A     2/ 8
44056 DUCK FRF   0900                        N/A     2/ 8
OREGON INLET NC  0900   72 74  180/  3/  5 1017.2R
HATTERAS NC      0900   73 77  270/  3/  4 1017.8R
DIAMOND SHLS NC  0900   74     300/  6/  8 1017.3R   3/ 8   2/ 8
CAPE LOOKOUT NC  0800   76     170/  5/  6 1017.3F
$$



USA.gov is the U.S. government's official web portal to all federal, state and local government web resources and services.